Location: Melizzano
(41.1500°N, 14.5000°E)
Time: 09:28:21
(UTC+00:00)

Cosmos 1709 Rocket - Pass Details

Date: 05 October 2021
Orbit: 948 x 1002 km, 82.9° (Epoch: 27 October)

Event Time Altitude Azimuth Distance (km) Brightness Sun altitude
Rises 03:50:24 0° 342° (NNW) 3,633 6.9 -14.4°
Reaches altitude 10° 03:53:09 10° 332° (NNW) 2,688 6.1 -13.9°
Maximum altitude 03:58:25 31° 273° (W) 1,618 4.6 -12.9°
Drops below altitude 10° 04:03:43 10° 214° (SW) 2,699 6.0 -12.0°
Sets 04:06:29 0° 204° (SSW) 3,650 6.7 -11.4°
